AFR739 LEAM-LFKJ

Flight info

Callsign AFR739
Flight time 1h 35m
Altitude 40000
Route DOSEK N860 RESTU N851 ISTER DCT NESUL UN851 NEGAT
Aircraft A343/H-SDE2E3FGHIJ4J5M1RWXY/LB1D1

Departure

Time 2026-04-21 15:49
Airport Almería Airport (LEAM)

Arrival

Time 2026-04-21 17:24
Airport Ajaccio Napoléon Bonaparte airport (LFKJ)
Time Latitude Longitude Altitude Speed Heading
2026-04-21 15:16 36.84631 -2.37343 70 ft 0 kts 116°
2026-04-21 15:43 36.84619 -2.37312 70 ft 7 kts 116°
2026-04-21 15:44 36.84596 -2.37246 69 ft 9 kts 102°
2026-04-21 15:44 36.84604 -2.37160 69 ft 11 kts 75°
2026-04-21 15:44 36.84627 -2.37070 70 ft 11 kts 72°
2026-04-21 15:44 36.84645 -2.36972 70 ft 13 kts 96°
2026-04-21 15:45 36.84610 -2.36843 69 ft 18 kts 86°
2026-04-21 15:45 36.84648 -2.36675 68 ft 22 kts 74°
2026-04-21 15:45 36.84697 -2.36476 68 ft 25 kts 73°
2026-04-21 15:45 36.84751 -2.36260 70 ft 27 kts 73°
2026-04-21 15:46 36.84805 -2.36036 73 ft 28 kts 73°
2026-04-21 15:46 36.84861 -2.35805 78 ft 28 kts 74°
2026-04-21 15:46 36.84919 -2.35571 82 ft 28 kts 72°
2026-04-21 15:46 36.84936 -2.35391 84 ft 15 kts 116°
2026-04-21 15:47 36.84885 -2.35337 84 ft 9 kts 156°
2026-04-21 15:47 36.84832 -2.35314 84 ft 5 kts 178°
2026-04-21 15:47 36.84802 -2.35347 83 ft 8 kts 245°
2026-04-21 15:47 36.84799 -2.35358 83 ft 0 kts 252°
2026-04-21 15:48 36.84755 -2.35537 81 ft 54 kts 253°
2026-04-21 15:48 36.84585 -2.36229 68 ft 111 kts 253°
2026-04-21 15:48 36.84317 -2.37330 65 ft 152 kts 253°
2026-04-21 15:48 36.83988 -2.38595 468 ft 152 kts 250°
2026-04-21 15:49 36.83637 -2.39867 869 ft 160 kts 251°
2026-04-21 15:49 36.83301 -2.41211 1317 ft 166 kts 255°
2026-04-21 15:49 36.82992 -2.42579 1864 ft 166 kts 253°
2026-04-21 15:49 36.82669 -2.43944 2389 ft 166 kts 252°
2026-04-21 15:50 36.82336 -2.45324 2818 ft 167 kts 252°
2026-04-21 15:50 36.81999 -2.46709 3074 ft 170 kts 252°
2026-04-21 15:50 36.81648 -2.48144 3269 ft 178 kts 252°
2026-04-21 15:50 36.81117 -2.49564 3395 ft 186 kts 226°
2026-04-21 15:51 36.79978 -2.50303 3549 ft 192 kts 187°
2026-04-21 15:51 36.78657 -2.50021 3727 ft 199 kts 160°
2026-04-21 15:51 36.77334 -2.49423 3907 ft 207 kts 162°
2026-04-21 15:51 36.75927 -2.48834 3980 ft 223 kts 162°
2026-04-21 15:52 36.74394 -2.48220 4182 ft 237 kts 163°
2026-04-21 15:52 36.72837 -2.47611 4761 ft 234 kts 164°
2026-04-21 15:52 36.71447 -2.46670 5408 ft 229 kts 136°
2026-04-21 15:52 36.70675 -2.44971 5877 ft 234 kts 105°
2026-04-21 15:53 36.70718 -2.42926 6166 ft 247 kts 77°
2026-04-21 15:53 36.71229 -2.40837 6457 ft 258 kts 74°
2026-04-21 15:53 36.71758 -2.38699 6951 ft 260 kts 74°
2026-04-21 15:53 36.72282 -2.36573 7512 ft 258 kts 74°
2026-04-21 15:54 36.72808 -2.34430 7952 ft 263 kts 74°
2026-04-21 15:54 36.73348 -2.32227 8394 ft 267 kts 74°
2026-04-21 15:54 36.73918 -2.30040 8921 ft 267 kts 65°
2026-04-21 15:54 36.75044 -2.28223 9338 ft 271 kts 37°
2026-04-21 15:55 36.76709 -2.27084 9654 ft 279 kts 23°
2026-04-21 15:55 36.78505 -2.26051 9924 ft 292 kts 23°
2026-04-21 15:55 36.80382 -2.24950 10167 ft 306 kts 24°
2026-04-21 15:55 36.82342 -2.23790 10386 ft 320 kts 24°
2026-04-21 15:56 36.84409 -2.22562 10584 ft 335 kts 24°
2026-04-21 15:56 36.86556 -2.21283 10732 ft 350 kts 24°
2026-04-21 15:56 36.88790 -2.19951 10975 ft 362 kts 24°
2026-04-21 15:56 36.91049 -2.18602 11632 ft 360 kts 24°
2026-04-21 15:57 36.93273 -2.17273 12415 ft 355 kts 23°
2026-04-21 15:57 36.95500 -2.15943 12884 ft 360 kts 23°
2026-04-21 15:57 36.97781 -2.14580 13244 ft 368 kts 23°
2026-04-21 15:57 37.00095 -2.13195 13899 ft 368 kts 23°
2026-04-21 15:58 37.02390 -2.11822 14550 ft 368 kts 23°
2026-04-21 15:58 37.04707 -2.10433 14973 ft 374 kts 23°
2026-04-21 15:58 37.07067 -2.09019 15450 ft 380 kts 24°
2026-04-21 15:58 37.09440 -2.07595 16079 ft 381 kts 24°
2026-04-21 15:59 37.11824 -2.06163 16678 ft 383 kts 24°
2026-04-21 15:59 37.14231 -2.04718 17156 ft 389 kts 24°
2026-04-21 15:59 37.16696 -2.03236 17691 ft 394 kts 24°
2026-04-21 15:59 37.19158 -2.01754 18383 ft 395 kts 24°
2026-04-21 16:00 37.21629 -2.00266 18932 ft 398 kts 24°
2026-04-21 16:00 37.24137 -1.98757 19432 ft 404 kts 24°
2026-04-21 16:00 37.26653 -1.97173 20030 ft 409 kts 25°
2026-04-21 16:00 37.29189 -1.95548 20669 ft 412 kts 25°
2026-04-21 16:01 37.31737 -1.93916 21312 ft 415 kts 25°
2026-04-21 16:01 37.34332 -1.92253 21867 ft 420 kts 25°
2026-04-21 16:01 37.36942 -1.90579 22364 ft 426 kts 25°
2026-04-21 16:01 37.39576 -1.88888 22941 ft 429 kts 25°
2026-04-21 16:02 37.42233 -1.87181 23561 ft 431 kts 25°
2026-04-21 16:02 37.44902 -1.85465 24145 ft 434 kts 25°
2026-04-21 16:02 37.47596 -1.83732 24624 ft 439 kts 25°
2026-04-21 16:02 37.50332 -1.81971 25107 ft 444 kts 24°
2026-04-21 16:03 37.53076 -1.80202 25687 ft 445 kts 25°
2026-04-21 16:03 37.55849 -1.78414 26244 ft 448 kts 24°
2026-04-21 16:03 37.58621 -1.76625 26674 ft 452 kts 24°
2026-04-21 16:03 37.61426 -1.74813 27132 ft 456 kts 24°
2026-04-21 16:04 37.64242 -1.72993 27647 ft 458 kts 24°
2026-04-21 16:04 37.67074 -1.71160 28147 ft 460 kts 24°
2026-04-21 16:04 37.69921 -1.69316 28567 ft 464 kts 24°
2026-04-21 16:04 37.72815 -1.67440 28989 ft 468 kts 24°
2026-04-21 16:05 37.75716 -1.65557 29449 ft 471 kts 24°
2026-04-21 16:05 37.78635 -1.63662 29950 ft 472 kts 24°
2026-04-21 16:05 37.81553 -1.61765 30384 ft 475 kts 24°
2026-04-21 16:05 37.84495 -1.59852 30678 ft 481 kts 24°
2026-04-21 16:06 37.87462 -1.57898 31038 ft 485 kts 26°
2026-04-21 16:06 37.90156 -1.55312 31411 ft 493 kts 43°
2026-04-21 16:06 37.92272 -1.51863 31723 ft 500 kts 58°
2026-04-21 16:06 37.93783 -1.47893 31947 ft 505 kts 65°
2026-04-21 16:07 37.95716 -1.42503 32643 ft 503 kts 64°
2026-04-21 16:07 37.96677 -1.39863 33195 ft 497 kts 64°
2026-04-21 16:07 37.98111 -1.35943 33902 ft 492 kts 64°
2026-04-21 16:07 37.99581 -1.32027 34126 ft 498 kts 63°
2026-04-21 16:08 38.02612 -1.24064 34782 ft 502 kts 63°
2026-04-21 16:08 38.04116 -1.20112 35542 ft 496 kts 64°
2026-04-21 16:08 38.05600 -1.16205 36136 ft 493 kts 64°
2026-04-21 16:09 38.07084 -1.12294 36460 ft 496 kts 63°
2026-04-21 16:09 38.08576 -1.08360 36760 ft 499 kts 63°
2026-04-21 16:09 38.10066 -1.04422 37267 ft 496 kts 63°
2026-04-21 16:09 38.11545 -1.00512 37814 ft 493 kts 63°
2026-04-21 16:10 38.13036 -0.96563 37866 ft 500 kts 64°
2026-04-21 16:10 38.16069 -0.88517 37892 ft 513 kts 64°
2026-04-21 16:11 38.19145 -0.80333 37871 ft 514 kts 63°
2026-04-21 16:11 38.22188 -0.72214 37866 ft 510 kts 63°
2026-04-21 16:12 38.25235 -0.64064 37867 ft 512 kts 64°
2026-04-21 16:12 38.28263 -0.55944 37869 ft 509 kts 64°
2026-04-21 16:13 38.31272 -0.47854 37872 ft 509 kts 64°
2026-04-21 16:13 38.34294 -0.39704 37870 ft 511 kts 64°
2026-04-21 16:14 38.37302 -0.31571 37853 ft 509 kts 64°
2026-04-21 16:14 38.40290 -0.23470 37854 ft 507 kts 64°
2026-04-21 16:15 38.43272 -0.15365 37847 ft 508 kts 64°
2026-04-21 16:15 38.46256 -0.07231 37846 ft 506 kts 64°
2026-04-21 16:16 38.49218 0.00863 37850 ft 506 kts 64°
2026-04-21 16:16 38.52176 0.08971 37851 ft 507 kts 64°
2026-04-21 16:17 38.55139 0.17111 37854 ft 505 kts 64°
2026-04-21 16:17 38.58075 0.25200 37858 ft 505 kts 64°
2026-04-21 16:18 38.61014 0.33320 37860 ft 506 kts 64°
2026-04-21 16:18 38.63938 0.41422 37864 ft 503 kts 64°
2026-04-21 16:19 38.66856 0.49526 37860 ft 502 kts 64°
2026-04-21 16:19 38.69762 0.57622 37867 ft 504 kts 64°
2026-04-21 16:20 38.72660 0.65715 37860 ft 502 kts 64°
2026-04-21 16:20 38.75556 0.73828 37863 ft 502 kts 64°
2026-04-21 16:21 38.78436 0.81916 37867 ft 502 kts 64°
2026-04-21 16:21 38.81305 0.89997 37874 ft 500 kts 64°
2026-04-21 16:22 38.84171 0.98091 37870 ft 500 kts 64°
2026-04-21 16:22 38.87033 1.06194 37874 ft 500 kts 64°
2026-04-21 16:23 38.89884 1.14290 37878 ft 500 kts 64°
2026-04-21 16:23 38.92722 1.22371 37884 ft 499 kts 64°
2026-04-21 16:24 38.95566 1.30492 37887 ft 500 kts 64°
2026-04-21 16:24 38.98392 1.38585 37887 ft 498 kts 64°
2026-04-21 16:25 39.01211 1.46679 37886 ft 499 kts 64°
2026-04-21 16:25 39.04027 1.54786 37887 ft 498 kts 64°
2026-04-21 16:26 39.06837 1.62902 37884 ft 498 kts 64°
2026-04-21 16:26 39.09639 1.71014 37874 ft 499 kts 64°
2026-04-21 16:27 39.12433 1.79126 37870 ft 497 kts 64°
2026-04-21 16:27 39.13821 1.83165 37718 ft 495 kts 64°
2026-04-21 16:27 39.15214 1.87224 37971 ft 497 kts 64°
2026-04-21 16:27 39.16617 1.91316 37784 ft 504 kts 64°
2026-04-21 16:28 39.18016 1.95405 37940 ft 500 kts 64°
2026-04-21 16:28 39.20796 2.03548 37887 ft 497 kts 64°
2026-04-21 16:29 39.23566 2.11680 37878 ft 499 kts 64°
2026-04-21 16:29 39.26344 2.19863 37883 ft 498 kts 64°
2026-04-21 16:30 39.29103 2.28009 37883 ft 497 kts 64°
2026-04-21 16:30 39.31818 2.36052 37880 ft 486 kts 64°
2026-04-21 16:31 39.34490 2.43988 37896 ft 483 kts 64°
2026-04-21 16:31 39.37183 2.52006 37901 ft 496 kts 64°
2026-04-21 16:32 39.39928 2.60205 37902 ft 500 kts 64°
2026-04-21 16:32 39.42640 2.68331 37892 ft 494 kts 65°
2026-04-21 16:33 39.45354 2.76483 37898 ft 496 kts 65°
2026-04-21 16:33 39.48063 2.84644 37903 ft 496 kts 65°
2026-04-21 16:34 39.50761 2.92795 37905 ft 495 kts 65°
2026-04-21 16:34 39.53460 3.00972 37912 ft 496 kts 65°
2026-04-21 16:35 39.56145 3.09134 37908 ft 494 kts 65°
2026-04-21 16:35 39.58820 3.17285 37900 ft 494 kts 65°
2026-04-21 16:36 39.61489 3.25443 37898 ft 495 kts 65°
2026-04-21 16:36 39.64162 3.33637 37903 ft 494 kts 65°
2026-04-21 16:37 39.66813 3.41790 37901 ft 493 kts 65°
2026-04-21 16:37 39.69458 3.49945 37897 ft 493 kts 65°
2026-04-21 16:38 39.72108 3.58142 37900 ft 493 kts 65°
2026-04-21 16:38 39.74735 3.66290 37895 ft 492 kts 65°
2026-04-21 16:39 39.77358 3.74447 37897 ft 492 kts 65°
2026-04-21 16:39 39.79976 3.82618 37901 ft 492 kts 65°
2026-04-21 16:40 39.82598 3.90822 37905 ft 491 kts 65°
2026-04-21 16:40 39.85202 3.98992 37913 ft 492 kts 65°
2026-04-21 16:41 39.87796 4.07157 37914 ft 491 kts 65°
2026-04-21 16:41 39.90392 4.15353 37913 ft 491 kts 65°
2026-04-21 16:42 39.92976 4.23537 37906 ft 491 kts 65°
2026-04-21 16:42 39.95554 4.31724 37910 ft 491 kts 65°
2026-04-21 16:43 39.98126 4.39917 37913 ft 491 kts 65°
2026-04-21 16:43 40.00700 4.48144 37916 ft 491 kts 65°
2026-04-21 16:44 40.03260 4.56348 37916 ft 491 kts 65°
2026-04-21 16:44 40.05814 4.64556 37910 ft 491 kts 65°
2026-04-21 16:45 40.08877 4.72430 37928 ft 487 kts 56°
2026-04-21 16:45 40.12347 4.80012 37909 ft 489 kts 57°
2026-04-21 16:46 40.15742 4.87636 37906 ft 488 kts 57°
2026-04-21 16:46 40.19117 4.95279 37911 ft 489 kts 57°
2026-04-21 16:47 40.22502 5.02979 37914 ft 489 kts 57°
2026-04-21 16:47 40.25860 5.10639 37914 ft 488 kts 57°
2026-04-21 16:48 40.29217 5.18318 37909 ft 489 kts 57°
2026-04-21 16:48 40.32580 5.26030 37906 ft 488 kts 57°
2026-04-21 16:49 40.35925 5.33720 37907 ft 488 kts 57°
2026-04-21 16:49 40.39268 5.41423 37905 ft 489 kts 57°
2026-04-21 16:50 40.42608 5.49140 37905 ft 489 kts 57°
2026-04-21 16:50 40.45953 5.56887 37911 ft 489 kts 57°
2026-04-21 16:51 40.49283 5.64621 37911 ft 489 kts 57°
2026-04-21 16:51 40.52608 5.72360 37908 ft 489 kts 58°
2026-04-21 16:52 40.55941 5.80138 37909 ft 489 kts 58°
2026-04-21 16:52 40.59258 5.87900 37907 ft 489 kts 58°
2026-04-21 16:53 40.62569 5.95668 37896 ft 490 kts 58°
2026-04-21 16:53 40.65877 6.03450 37893 ft 490 kts 58°
2026-04-21 16:54 40.69193 6.11268 37902 ft 490 kts 58°
2026-04-21 16:54 40.72492 6.19069 37906 ft 490 kts 58°
2026-04-21 16:55 40.75785 6.26873 37912 ft 490 kts 58°
2026-04-21 16:55 40.79083 6.34711 37916 ft 490 kts 58°
2026-04-21 16:56 40.82370 6.42543 37872 ft 489 kts 57°
2026-04-21 16:56 40.84013 6.46464 37054 ft 492 kts 57°
2026-04-21 16:56 40.85642 6.50360 36443 ft 483 kts 57°
2026-04-21 16:56 40.87244 6.54198 35865 ft 477 kts 57°
2026-04-21 16:57 40.88835 6.58008 35280 ft 479 kts 57°
2026-04-21 16:57 40.90458 6.61899 34692 ft 486 kts 57°
2026-04-21 16:57 40.92085 6.65809 34062 ft 489 kts 58°
2026-04-21 16:57 40.93712 6.69722 33418 ft 487 kts 58°
2026-04-21 16:58 40.95330 6.73620 32735 ft 488 kts 58°
2026-04-21 16:58 40.96960 6.77551 31989 ft 492 kts 58°
2026-04-21 16:58 40.98598 6.81509 31253 ft 490 kts 58°
2026-04-21 16:58 41.00202 6.85391 30608 ft 478 kts 58°
2026-04-21 16:59 41.01783 6.89222 30059 ft 472 kts 58°
2026-04-21 16:59 41.03348 6.93013 29550 ft 474 kts 58°
2026-04-21 16:59 41.04913 6.96812 29037 ft 471 kts 58°
2026-04-21 16:59 41.06460 7.00575 28493 ft 465 kts 58°
2026-04-21 17:00 41.07988 7.04292 27907 ft 460 kts 58°
2026-04-21 17:00 41.09504 7.07978 27337 ft 456 kts 58°
2026-04-21 17:00 41.10512 7.10433 26974 ft 453 kts 58°
2026-04-21 17:00 41.12496 7.15269 26312 ft 447 kts 58°
2026-04-21 17:01 41.13968 7.18861 25858 ft 445 kts 58°
2026-04-21 17:01 41.15431 7.22442 25406 ft 442 kts 58°
2026-04-21 17:01 41.16878 7.25993 24950 ft 438 kts 58°
2026-04-21 17:01 41.18312 7.29518 24472 ft 435 kts 58°
2026-04-21 17:02 41.19734 7.33016 23966 ft 432 kts 58°
2026-04-21 17:02 41.21140 7.36481 23445 ft 427 kts 58°
2026-04-21 17:02 41.22542 7.39939 22911 ft 424 kts 58°
2026-04-21 17:02 41.23928 7.43359 22380 ft 421 kts 58°
2026-04-21 17:03 41.25298 7.46746 21856 ft 417 kts 58°
2026-04-21 17:03 41.26656 7.50106 21349 ft 414 kts 58°
2026-04-21 17:03 41.28003 7.53444 20851 ft 411 kts 58°
2026-04-21 17:03 41.29342 7.56765 20360 ft 408 kts 58°
2026-04-21 17:04 41.30667 7.60055 19876 ft 404 kts 58°
2026-04-21 17:04 41.31991 7.63347 19399 ft 402 kts 58°
2026-04-21 17:04 41.33299 7.66601 18922 ft 399 kts 59°
2026-04-21 17:04 41.34594 7.69828 18449 ft 397 kts 59°
2026-04-21 17:05 41.35884 7.73044 17975 ft 395 kts 59°
2026-04-21 17:05 41.37161 7.76234 17508 ft 391 kts 59°
2026-04-21 17:05 41.38428 7.79399 17037 ft 388 kts 59°
2026-04-21 17:05 41.39685 7.82546 16569 ft 386 kts 59°
2026-04-21 17:06 41.40943 7.85696 16090 ft 384 kts 59°
2026-04-21 17:06 41.42082 7.88874 15620 ft 381 kts 63°
2026-04-21 17:06 41.43140 7.92080 15150 ft 379 kts 63°
2026-04-21 17:06 41.44195 7.95263 14672 ft 376 kts 63°
2026-04-21 17:07 41.45241 7.98412 14202 ft 373 kts 63°
2026-04-21 17:07 41.46279 8.01532 13720 ft 370 kts 63°
2026-04-21 17:07 41.47311 8.04637 13232 ft 368 kts 63°
2026-04-21 17:07 41.48346 8.07750 12755 ft 366 kts 63°
2026-04-21 17:08 41.49366 8.10821 12281 ft 363 kts 63°
2026-04-21 17:08 41.50380 8.13875 11818 ft 361 kts 63°
2026-04-21 17:08 41.51384 8.16903 11361 ft 357 kts 63°
2026-04-21 17:08 41.52383 8.19916 10955 ft 356 kts 63°
2026-04-21 17:09 41.54365 8.25907 10955 ft 353 kts 63°
2026-04-21 17:09 41.55319 8.28805 10816 ft 325 kts 63°
2026-04-21 17:09 41.56189 8.31451 10286 ft 304 kts 62°
2026-04-21 17:10 41.57020 8.33970 10069 ft 296 kts 62°
2026-04-21 17:10 41.57854 8.36495 9959 ft 298 kts 62°
2026-04-21 17:10 41.58675 8.38993 9840 ft 294 kts 62°
2026-04-21 17:10 41.59497 8.41492 9550 ft 293 kts 62°
2026-04-21 17:11 41.60298 8.43934 9490 ft 289 kts 62°
2026-04-21 17:11 41.61394 8.46156 9397 ft 283 kts 38°
2026-04-21 17:11 41.63034 8.47454 9313 ft 269 kts 12°
2026-04-21 17:11 41.64815 8.47674 9048 ft 255 kts 351°
2026-04-21 17:12 41.66554 8.47412 8724 ft 249 kts 349°
2026-04-21 17:12 41.68230 8.47140 8536 ft 238 kts 348°
2026-04-21 17:12 41.69830 8.46872 8415 ft 226 kts 348°
2026-04-21 17:12 41.71352 8.46613 8253 ft 219 kts 348°
2026-04-21 17:13 41.72877 8.46348 7796 ft 224 kts 348°
2026-04-21 17:13 41.74428 8.46079 7409 ft 227 kts 349°
2026-04-21 17:13 41.75978 8.45811 7187 ft 225 kts 349°
2026-04-21 17:13 41.77514 8.45546 6941 ft 222 kts 349°
2026-04-21 17:14 41.79044 8.45280 6706 ft 223 kts 349°
2026-04-21 17:14 41.80572 8.45014 6472 ft 222 kts 349°
2026-04-21 17:14 41.82099 8.44749 6244 ft 222 kts 349°
2026-04-21 17:14 41.83633 8.44483 6023 ft 221 kts 349°
2026-04-21 17:15 41.85157 8.44218 5798 ft 221 kts 349°
2026-04-21 17:15 41.86674 8.43954 5572 ft 221 kts 349°
2026-04-21 17:15 41.88190 8.43690 5361 ft 220 kts 349°
2026-04-21 17:15 41.89705 8.43426 5141 ft 220 kts 349°
2026-04-21 17:16 41.91212 8.43164 5033 ft 218 kts 349°
2026-04-21 17:16 41.92724 8.42899 4968 ft 221 kts 349°
2026-04-21 17:16 41.94254 8.43060 4882 ft 226 kts 19°
2026-04-21 17:16 41.95522 8.44319 4731 ft 235 kts 51°
2026-04-21 17:17 41.96256 8.46257 4509 ft 232 kts 65°
2026-04-21 17:17 41.96893 8.48228 4252 ft 230 kts 64°
2026-04-21 17:17 41.97547 8.50181 4010 ft 230 kts 64°
2026-04-21 17:17 41.97961 8.52225 3792 ft 227 kts 81°
2026-04-21 17:18 41.98181 8.54293 3566 ft 223 kts 80°
2026-04-21 17:18 41.98489 8.56319 3329 ft 219 kts 71°
2026-04-21 17:18 41.98962 8.58231 3138 ft 213 kts 70°
2026-04-21 17:18 41.99402 8.60015 3174 ft 188 kts 70°
2026-04-21 17:19 41.99798 8.61624 3079 ft 182 kts 70°
2026-04-21 17:19 42.00198 8.63247 3031 ft 185 kts 70°
2026-04-21 17:19 42.00601 8.64889 2971 ft 186 kts 70°
2026-04-21 17:19 42.00794 8.66571 2863 ft 178 kts 97°
2026-04-21 17:20 42.00585 8.68169 2814 ft 174 kts 101°
2026-04-21 17:20 42.00368 8.69729 2828 ft 166 kts 101°
2026-04-21 17:20 42.00171 8.71227 2802 ft 163 kts 100°
2026-04-21 17:20 41.99977 8.72723 2750 ft 163 kts 100°
2026-04-21 17:21 41.99781 8.74226 2608 ft 164 kts 100°
2026-04-21 17:21 41.99585 8.75727 2375 ft 163 kts 100°
2026-04-21 17:21 41.99391 8.77209 2144 ft 160 kts 100°
2026-04-21 17:21 41.99201 8.78660 1906 ft 157 kts 100°
2026-04-21 17:22 41.99014 8.80090 1676 ft 156 kts 100°
2026-04-21 17:22 41.98735 8.81479 1408 ft 155 kts 121°
2026-04-21 17:22 41.98002 8.82476 1194 ft 151 kts 151°
2026-04-21 17:22 41.97027 8.82882 974 ft 146 kts 178°
2026-04-21 17:23 41.96061 8.82659 763 ft 141 kts 205°
2026-04-21 17:23 41.95207 8.82028 555 ft 140 kts 208°
2026-04-21 17:23 41.94330 8.81468 359 ft 138 kts 207°
2026-04-21 17:23 41.93466 8.80922 172 ft 137 kts 205°
2026-04-21 17:24 41.92615 8.80388 33 ft 123 kts 205°
2026-04-21 17:24 41.92180 8.80116 31 ft 35 kts 205°
2026-04-21 17:24 41.91965 8.79981 30 ft 33 kts 206°
2026-04-21 17:24 41.91770 8.79858 30 ft 29 kts 205°
2026-04-21 17:25 41.91596 8.79751 29 ft 26 kts 205°
2026-04-21 17:25 41.91442 8.79652 29 ft 23 kts 207°
2026-04-21 17:25 41.91309 8.79562 29 ft 20 kts 207°
2026-04-21 17:25 41.91261 8.79429 28 ft 17 kts 309°
2026-04-21 17:26 41.91362 8.79356 29 ft 16 kts 339°
2026-04-21 17:26 41.91470 8.79346 29 ft 16 kts 14°
2026-04-21 17:26 41.91570 8.79405 29 ft 16 kts 27°
2026-04-21 17:26 41.91668 8.79470 29 ft 16 kts 23°
2026-04-21 17:27 41.91770 8.79529 29 ft 16 kts 25°
2026-04-21 17:27 41.91868 8.79593 30 ft 16 kts 25°
2026-04-21 17:27 41.91967 8.79653 30 ft 16 kts 24°
2026-04-21 17:27 41.92067 8.79713 30 ft 16 kts 26°
2026-04-21 17:28 41.92123 8.79747 30 ft 2 kts
2026-04-21 17:28 41.92149 8.79730 30 ft 6 kts 324°
2026-04-21 17:28 41.92178 8.79714 30 ft 3 kts 344°
2026-04-21 17:28 41.92187 8.79711 30 ft 0 kts 345°